EW6618 Weather Reports


Display with metric or nautical units.
time (UTC)temp
F
wind
direction
speed
MPH
gust
MPH
rain 1hr
in
rain 24hr
in
rain mn
in
humidity
%
barometer
mb
20260901012102 73 288 8.0 12.0 0.00 0.00 0.00 81 1013.1
20260901011031 73 247 8.0 13.0 0.00 0.00 0.00 81 1013.1
20260901010007 74 252 9.0 14.0 0.00 0.00 0.00 80 1013.2
20260901004958 74 226 9.0 14.0 0.00 0.00 0.00 79 1013.3
20260901004001 74 126 9.0 14.0 0.00 0.00 0.00 80 1013.2
20260901002926 75 29 8.0 12.0 0.00 0.00 0.00 79 1013.2
20260901001854 75 257 9.0 13.0 0.00 0.00 0.00 79 1013.3
20260831234618 76 299 8.0 13.0 0.00 0.00 0.00 77 1013.4
20260831232432 76 167 7.0 11.0 0.00 0.00 0.00 76 1013.2
20260831231400 76 234 7.0 11.0 0.00 0.00 0.00 77 1013.3
20260831225240 76 230 6.0 12.0 0.00 0.00 0.00 76 1013.2
20260831223058 77 228 6.0 13.0 0.00 0.00 0.00 75 1013.5
20260831222038 77 149 8.0 13.0 0.00 0.00 0.00 76 1013.6
20260831221051 77 171 8.0 12.0 0.00 0.00 0.00 75 1013.7
20260831214954 77 317 8.0 12.0 0.00 0.00 0.00 75 1013.8
20260831213945 77 200 7.0 10.0 0.00 0.00 0.00 74 1013.8
20260831212925 78 248 6.0 11.0 0.00 0.00 0.00 73 1013.9
20260831211919 77 245 6.0 11.0 0.00 0.00 0.00 73 1014.0
20260831210856 77 269 7.0 10.0 0.00 0.00 0.00 74 1014.0
20260831205825 78 224 6.0 9.0 0.00 0.00 0.00 73 1014.0
20260831204837 77 13 6.0 11.0 0.00 0.00 0.00 73 1014.2
20260831202633 78 272 6.0 9.0 0.00 0.00 0.00 74 1014.2
20260831201648 77 251 7.0 12.0 0.00 0.00 0.00 75 1014.2
20260831200633 77 245 7.0 12.0 0.00 0.00 0.00 76 1014.3
20260831195651 77 139 6.0 10.0 0.00 0.00 0.00 74 1014.3
20260831194623 77 267 7.0 10.0 0.00 0.00 0.00 75 1014.4
20260831192501 77 261 7.0 10.0 0.00 0.00 0.00 75 1014.6
20260831191521 78 259 6.0 9.0 0.00 0.00 0.00 74 1014.6
20260831190449 78 344 5.0 9.0 0.00 0.00 0.00 74 1014.6
20260831185445 78 49 5.0 8.0 0.00 0.00 0.00 75 1014.7
20260831184504 77 291 5.0 8.0 0.00 0.00 0.00 75 1014.6
20260831183445 77 203 5.0 9.0 0.00 0.00 0.00 76 1014.6
20260831182448 76 184 5.0 9.0 0.00 0.00 0.00 76 1014.6
20260831181443 77 230 5.0 9.0 0.00 0.00 0.00 76 1014.6
20260831180458 76 238 4.0 8.0 0.00 0.00 0.00 77 1014.6
20260831173219 76 84 3.0 8.0 0.00 0.00 0.00 78 1014.5
20260831172221 76 275 3.0 7.0 0.00 0.00 0.00 77 1014.5
20260831171147 76 75 3.0 7.0 0.00 0.00 0.00 79 1014.5
20260831170200 75 309 3.0 9.0 0.00 0.00 0.00 80 1014.3
20260831162839 74 153 1.0 4.0 0.00 0.00 0.00 81 1014.0
20260831161830 74 188 1.0 4.0 0.00 0.00 0.00 82 1013.9
20260831160809 74 340 1.0 4.0 0.00 0.00 0.00 82 1014.0
20260831155813 73 209 0.0 3.0 0.00 0.00 0.00 84 1013.9
20260831154752 72 159 0.0 3.0 0.00 0.00 0.00 84 1013.9
20260831153752 72 143 0.0 1.0 0.00 0.00 0.00 86 1013.8
20260831152725 72 257 0.0 1.0 0.00 0.00 0.00 86 1013.8
20260831151654 72 269 0.0 3.0 0.00 0.00 0.00 86 1013.7
20260831150713 72 250 0.0 0.0 0.00 0.00 0.00 87 1013.6
20260831145643 71 250 0.0 3.0 0.00 0.00 0.00 87 1013.6
20260831144646 71 206 0.0 1.0 0.00 0.00 0.00 89 1013.6
20260831143646 71 134 0.0 0.0 0.00 0.00 0.00 89 1013.5
20260831142705 70 134 0.0 0.0 0.00 0.00 0.00 90 1013.3
20260831141702 69 134 0.0 0.0 0.00 0.00 0.00 90 1013.2
20260831140654 68 134 0.0 0.0 0.00 0.00 0.00 90 1013.1
20260831134534 68 134 0.0 0.0 0.00 0.00 0.00 89 1012.7
20260831133555 68 134 0.0 0.0 0.00 0.00 0.00 90 1012.7
20260831132538 68 134 0.0 0.0 0.00 0.00 0.00 89 1012.5
20260831131532 68 213 0.0 1.0 0.00 0.00 0.00 89 1012.5
20260831130526 68 216 0.0 1.0 0.00 0.00 0.00 89 1012.5
20260831125504 68 212 0.0 0.0 0.00 0.00 0.00 89 1012.5
20260831124505 68 204 0.0 0.0 0.00 0.00 0.00 89 1012.5
20260831123527 68 204 0.0 0.0 0.00 0.00 0.00 89 1012.3
20260831122506 68 204 0.0 2.0 0.00 0.00 0.00 89 1012.4
20260831121508 68 203 0.0 1.0 0.00 0.00 0.00 89 1012.5
20260831115342 69 133 0.0 1.0 0.00 0.00 0.00 89 1012.5
20260831114319 69 214 0.0 1.0 0.00 0.00 0.00 89 1012.4
20260831112144 69 143 0.0 2.0 0.00 0.00 0.00 88 1012.5
20260831111119 69 197 0.0 2.0 0.00 0.00 0.00 88 1012.6
20260831105012 69 137 0.0 2.0 0.00 0.00 0.00 88 1012.5
20260831103950 69 128 1.0 3.0 0.00 0.00 0.00 88 1012.6
20260831102919 70 144 0.0 3.0 0.00 0.00 0.00 88 1012.6
20260831101926 70 171 0.0 3.0 0.00 0.00 0.00 88 1012.6
20260831100904 70 241 1.0 3.0 0.00 0.00 0.00 87 1012.6
20260831095928 70 146 1.0 3.0 0.00 0.00 0.00 88 1012.6
20260831094919 70 141 1.0 4.0 0.00 0.00 0.00 87 1012.6
20260831093942 71 139 1.0 5.0 0.00 0.00 0.00 87 1012.5
20260831093000 71 170 1.0 5.0 0.00 0.00 0.00 86 1012.6
20260831091936 70 177 1.0 4.0 0.00 0.00 0.00 86 1012.6
20260831090940 70 93 3.0 8.0 0.00 0.00 0.00 85 1012.6
20260831084746 71 257 1.0 6.0 0.00 0.00 0.00 85 1012.6
20260831083737 70 233 2.0 6.0 0.00 0.00 0.00 85 1012.5
20260831082736 71 6 2.0 5.0 0.00 0.00 0.00 84 1012.4
20260831081716 71 186 3.0 5.0 0.00 0.00 0.00 84 1012.6
20260831080740 71 241 2.0 5.0 0.00 0.00 0.00 84 1012.7
20260831075801 71 260 3.0 6.0 0.00 0.00 0.00 83 1012.6
20260831074824 71 134 3.0 8.0 0.00 0.00 0.00 83 1012.6
20260831073833 71 176 3.0 8.0 0.00 0.00 0.00 82 1012.5
20260831072835 71 122 3.0 7.0 0.00 0.00 0.00 82 1012.4
20260831071845 71 5 4.0 9.0 0.00 0.00 0.00 81 1012.4
20260831070835 71 62 4.0 9.0 0.00 0.00 0.00 80 1012.4
20260831065804 71 56 3.0 6.0 0.00 0.00 0.00 79 1012.2
20260831064812 71 188 3.0 6.0 0.00 0.00 0.00 78 1012.2
20260831063753 71 108 2.0 7.0 0.00 0.00 0.00 79 1012.4
20260831062801 71 130 3.0 8.0 0.00 0.00 0.00 79 1012.4
20260831061752 71 256 3.0 9.0 0.00 0.00 0.00 80 1012.3
20260831060807 70 345 4.0 9.0 0.00 0.00 0.00 82 1012.3
20260831055808 71 45 4.0 8.0 0.00 0.00 0.00 86 1012.4
20260831054812 71 97 2.0 6.0 0.00 0.00 0.00 87 1012.3
20260831052641 71 174 1.0 5.0 0.00 0.00 0.00 87 1012.3
20260831051636 71 90 3.0 9.0 0.00 0.00 0.00 86 1012.2
20260831050643 71 82 5.0 9.0 0.00 0.00 0.00 86 1012.4
20260831045622 71 271 6.0 8.0 0.00 0.00 0.00 87 1012.5
20260831043425 72 224 6.0 10.0 0.00 0.00 0.00 87 1012.3
20260831042418 72 358 6.0 10.0 0.00 0.00 0.00 87 1012.2
20260831041347 72 245 6.0 10.0 0.00 0.00 0.00 86 1012.1
20260831040406 72 243 6.0 10.0 0.00 0.00 0.00 87 1012.0
20260831035422 72 282 6.0 10.0 0.00 0.00 0.00 87 1012.0
20260831034441 72 297 6.0 10.0 0.00 0.00 0.00 87 1011.8
20260831033435 72 255 5.0 9.0 0.00 0.00 0.00 86 1011.6
20260831032440 73 217 5.0 8.0 0.00 0.00 0.00 85 1011.5
20260831031406 73 293 5.0 8.0 0.00 0.00 0.00 83 1011.4
20260831025259 73 44 7.0 11.0 0.00 0.00 0.00 81 1011.1
20260831024255 73 240 8.0 12.0 0.00 0.00 0.00 80 1011.2
20260831023253 73 289 8.0 13.0 0.00 0.00 0.00 78 1011.2
20260831022253 73 296 8.0 13.0 0.00 0.00 0.00 77 1011.2
20260831020129 73 111 6.0 9.0 0.00 0.00 0.00 78 1011.0
20260831015147 74 233 6.0 10.0 0.00 0.00 0.00 78 1011.1
20260831014132 74 302 6.0 10.0 0.00 0.00 0.00 76 1011.0
20260831013145 74 219 6.0 9.0 0.00 0.00 0.00 77 1011.2